Regional Weather Roundup
Issued by NWS

Home | Current Version | Previous Version | Graphics & Text | Print | Product List | Glossary On
Versions: 1 2 3 4 5 6 7 8 9 10 11 12 13 14 15 16 17 18 19 20 21 22 23 24 25 26 27 28 29 30 31 32 33 34 35 36 37 38 39 40 41 42 43 44 45 46 47 48 49 50
000
ASUS45 KSLC 290010
RWRUT

UTAH REGIONAL WEATHER ROUNDUP
NATIONAL WEATHER SERVICE SALT LAKE CITY UT
600 PM MDT FRI AUG 28 2015

UTZ001>011-023>025-290100-

NORTHERN UTAH

CITY           SKY/WX    TMP DP  RH WIND       PRES   REMARKS
BRIGHAM CITY   SUNNY     91  26  10 SW5       30.07F
HILL AFB       SUNNY     90  34  13 N6        30.11F
LOGAN          SUNNY     89  34  14 CALM      30.08F
OGDEN          SUNNY     91  33  12 W6        30.08F
PROVO AIRPORT  MOSUNNY   90  36  14 VRB6      30.09F
SALT LAKE CITY MOSUNNY   92  34  13 MISG      30.05F
VERNAL         SUNNY     85  36  17 S3        30.17F
WENDOVER       MOSUNNY   91  36  14 SE9       30.04F
HEBER CITY     MOSUNNY   88  34  14 NW5       30.17S
WEST JORDAN    SUNNY     90  39  17 CALM      30.09F

$$

UTZ012>022-026-027-290100-

SOUTHERN/CENTRAL UTAH

CITY           SKY/WX    TMP DP  RH WIND       PRES   REMARKS
BLANDING       MOSUNNY   86  35  16 E6        30.25S
BRYCE CANYON   MOSUNNY   78  40  25 VRB6      30.35F
CEDAR CITY     MOSUNNY   87  37  17 SW14      30.16F
DELTA          SUNNY     92  29  11 W9        30.09F
HANKSVILLE     SUNNY     91  32  12 N8        30.11F
MILFORD        SUNNY     92  36  14 S3        30.09F
MOAB/CYNLANDS  SUNNY     90  36  14 CALM      30.08F
PRICE          MOSUNNY   84  31  14 VRB3      30.21S
ST GEORGE      PTCLDY   100  43  14 W8        29.95F HX  96

$$

REGIONAL REPORTS     COLORADO/ARIZONA

CITY           SKY/WX    TMP DP  RH WIND       PRES   REMARKS
CRAIG, CO      SUNNY     81  38  21 SE5       30.26S
GRAND JUNCTION SUNNY     86  40  19 SW10      30.13F
RIFLE          SUNNY     85  41  21 W8        30.19F
MONTROSE       SUNNY     82  44  26 NW12      30.22F
CORTEZ         SUNNY     86  34  15 N12       30.16F
PAGE, AZ       SUNNY     95  36  12 VRB6      30.07F HX  90
GRAND CANYON   MOSUNNY   80  41  24 CALM      30.27F
KINGMAN        CLOUDY    97  46  17 SW5       29.99F HX  93
FLAGSTAFF      PTSUNNY   73  52  47 CALM      30.31F

$$

REGIONAL REPORTS    NEVADA/IDAHO/WYOMING

CITY           SKY/WX    TMP DP  RH WIND       PRES   REMARKS
LAS VEGAS, NV  MOSUNNY  105  47  14 E9        29.82F HX 101
ELY            MOSUNNY   80  45  28 S3        30.20F
ELKO           PTSUNNY   85  41  21 S14G23    30.06S
POCATELLO, ID  MOSUNNY   91  37  15 S7        30.07F
EVANSTON, WY   PTSUNNY   81  33  17 VRB7      30.30S
ROCK SPRINGS   SUNNY     81  29  15 NE6       30.28S
KEMMERER       MOSUNNY   81  28  15 W6        30.31F

$$



USA.gov is the U.S. government's official web portal to all federal, state and local government web resources and services.